Regional Weather Roundup
Issued by NWS Sioux Falls, SD

Home | Current Version | Previous Version | Text Only | Print | Product List | Glossary On
Versions: 1 2 3 4 5 6 7 8 9 10 11 12 13 14 15 16 17 18 19 20 21 22 23 24 25 26 27 28 29 30 31 32 33 34 35 36 37 38 39 40 41 42 43 44 45 46 47 48 49 50
000
ASUS43 KFSD 161910
RWRFSD

WEATHER ROUNDUP FOR SE SOUTH DAKOTA/SW MINNESOTA/NW IOWA
NATIONAL WEATHER SERVICE SIOUX FALLS SD
200 PM CDT TUE SEP 16 2014

NOTE: "FAIR" INDICATES FEW OR NO CLOUDS BELOW 12,000 FEET WITH NO
SIGNIFICANT WEATHER AND OR OBSTRUCTIONS TO VISIBILITY.


SDZ038>040-050-052>070-162000-
SOUTHEAST SOUTH DAKOTA

CITY           SKY/WX    TMP DP  RH WIND       PRES   REMARKS
CHAMBERLAIN    SUNNY     71  54  55 S9G16     29.97F
HURON          SUNNY     70  50  49 S14G23    29.99F
MADISON        FAIR      64  48  55 S17G23    30.05F
MITCHELL       SUNNY     70  52  52 S16G22    30.01F
SIOUX FALLS    PTSUNNY   67  48  50 S13       30.07F
WINNER         FAIR      72  53  51 SW13      29.97F
YANKTON        PTSUNNY   66  50  55 S17       30.06F
$$

MNZ071-072-080-081-089-090-097-098-162000-
SOUTHWEST MINNESOTA

CITY           SKY/WX    TMP DP  RH WIND       PRES   REMARKS
FAIRMONT       SUNNY     64  41  42 SW9       30.12F
JACKSON        SUNNY     64  43  45 S12       30.12F
LUVERNE        SUNNY     68  43  40 S13       30.09F
MARSHALL       SUNNY     66  43  42 SW8G16    30.06F
MONTEVIDEO     SUNNY     70  45  40 SW8       30.07F
PIPESTONE      SUNNY     66  45  45 S13       30.07F
REDWOOD FALLS  SUNNY     66  43  43 S13       30.09F
TRACY          SUNNY     66  44  46 S9        30.08F
WINDOM         SUNNY     66  45  45 S10G16    30.10F
WORTHINGTON    MOSUNNY   64  43  45 S9        30.11F
$$

IAZ001>003-012>014-020>022-031-032-NEZ013-014-SDZ071-162000-
NORTHWEST IOWA

CITY           SKY/WX    TMP DP  RH WIND       PRES   REMARKS
CHEROKEE       SUNNY     64  46  51 S10       30.12F
DENISON        SUNNY     64  45  48 S8        30.12F
ESTHERVILLE    SUNNY     64  44  48 S12G18    30.12F
LE MARS        SUNNY     66  48  52 S14G20    30.11F
ORANGE CITY    SUNNY     66  46  48 S12       30.10F
SHELDON        SUNNY     64  45  48 S13       30.10F
SIOUX CITY     SUNNY     67  48  50 VRB6      30.11F
SPENCER        SUNNY     65  45  48 S12       30.12F
STORM LAKE     SUNNY     63  54  72 SW9G16    30.13F
$$

ABBREVIATIONS USED IN REMARKS
   TC - TEMPERATURE IN CELSIUS
  WCI - WIND CHILL INDEX
   HX - HEAT INDEX
  VSB - VISIBILITY



USA.gov is the U.S. government's official web portal to all federal, state and local government web resources and services.